Regional Weather Roundup
Issued by NWS Cleveland, OH

Home | Current Version | Previous Version | Graphics & Text | Print | Product List | Glossary On
Versions: 1 2 3 4 5 6 7 8 9 10 11 12 13 14 15 16 17 18 19 20 21 22 23 24 25 26 27 28 29 30 31 32 33 34 35 36 37 38 39 40 41 42 43 44 45 46 47 48 49 50
000
ASUS41 KCLE 272000
RWRCLE
OHIO REGIONAL WEATHER ROUNDUP
NATIONAL WEATHER SERVICE WILMINGTON, OH
400 PM EDT FRI MAR 27 2015

NOTE: "FAIR" INDICATES FEW OR NO CLOUDS BELOW 12,000 FEET WITH NO
SIGNIFICANT WEATHER AND/OR OBSTRUCTIONS TO VISIBILITY.

OHZ001>008-015>018-024>027-034-035-043-044-272100-
   NORTHWEST OHIO

CITY           SKY/WX    TMP DP  RH WIND       PRES   REMARKS
DEFIANCE       CLOUDY    29  10  45 N8        30.05F WCI  21
FINDLAY        CLOUDY    28  15  58 N8        30.01F WCI  20
TOLEDO EXPRESS CLOUDY    25  13  60 NW10      30.04S WCI  15
TOLEDO EXEC    CLOUDY    28  14  55 NW12      30.04S WCI  18
LIMA           CLOUDY    29  15  56 N12       30.01F WCI  19
$$

OHZ009>014-019>023-028>033-038-089-272100-
   NORTHEAST OHIO

CITY           SKY/WX    TMP DP  RH WIND       PRES   REMARKS
CLE-HOPKINS    SNOW      25  21  85 N17       30.00S VSB 1/2 WCI  12
CLE-LAKEFRONT  LGT SNOW  27  21  78 NW14G21   29.98S WCI  16
CUY CO. ARPT   SNOWSHWR  27  23  86 N14G21    29.97S VSB 1   WCI  15
LORAIN-ELYRIA  SNOW      24  21  88 N16G22    29.99S VSB 1/2 WCI  11
ASHTABULA      LGT SNOW  25  19  78 NW12G21   29.94S WCI  14
AKRON-CANTON   LGT SNOW  27  18  69 NW12      29.93S WCI  17
WOOSTER        LGT SNOW  25  19  80 NW16      29.95S WCI  12
MANSFIELD      LGT SNOW  25  18  74 NW10      29.96S WCI  15
YOUNGSTOWN     LGT SNOW  28  19  69 NW10G20   29.90S WCI  19
$$

OHZ042-051>053-060>062-070>072-077>081-272100-
  SOUTHWEST OHIO

CITY           SKY/WX    TMP DP  RH WIND       PRES   REMARKS
CINC-COVINGTON FLURRIES  33  21  61 N21       30.01S WCI  21
CINC-LUNKEN    CLOUDY    35  21  56 N10       30.03F WCI  27
HAMILTON       CLOUDY    35  18  49 NW14      30.04S WCI  26
DAYTON         NOT AVBL
WRIGHT-PAT AFB CLOUDY    32  12  43 NW15G22   30.01S WCI  22
DAYTON GENERAL CLOUDY    32  18  56 N16       30.00S WCI  21
WILMINGTON     CLOUDY    31  18  58 N16G26    29.99R WCI  20
$$

OHZ036-037-039>041-045>050-054>059-063>069-073>076-082>088-272100-
  CENTRAL AND SOUTHEAST OHIO

CITY           SKY/WX    TMP DP  RH WIND       PRES   REMARKS
COLUMBUS       FLURRIES  30  19  63 NW16      29.97S WCI  19
OSU AIRPORT    CLOUDY    30  16  56 NW18G25   29.98S WCI  18
BOLTON FIELD   NOT AVBL
RICKENBACK AFB NOT AVBL
NEWARK         CLOUDY    31  20  63 NW18G26   29.95S WCI  19
MARION         LGT SNOW  27  16  63 N15       29.99S WCI  15
LANCASTER      CLOUDY    32  20  61 NW16G24   29.96S WCI  21
ZANESVILLE     CLOUDY    32  21  64 NW15      29.93R WCI  22
NEW PHILLY     LGT SNOW  30  20  66 NW15G28   29.94S WCI  19
$$


USA.gov is the U.S. government's official web portal to all federal, state and local government web resources and services.